www.pogodaiklimat.ru

Погода и климат >> Архив погоды >> Россия >> Якутия >> Покровск


ПОГОДА в Покровске

  • Прогноз погоды в Покровске
  • Монитор погоды в Покровске

АРХИВ ПОГОДЫ в Покровске

Время (UTC), дата Ветер
(напр.,м/с)
 
Видим.   Явления Облачность Т
(С)
Тd
(С)
f
(%)
Тe
(С)
Тes
(С)
Комфортность P
(гПа)
Po
(гПа)
Тmin
(С)
Tmax
(С)
R
(мм)
R24
(мм)
S
(см)
03 17.03 СВ 3 50 км ясно -20.4 -23.0 80 -28 -24 1010.6 994.3
06 17.03 С 4 50 км ясно -12.5 -16.8 70 -20 -18 1009.6 993.8
09 17.03 СВ 4 50 км ясно -12.3 -17.5 65 -19 -19 1010.2 994.4
12 17.03 С 2 20 км ясно -16.1 -19.5 75 -21 -21 1012.2 996.1 -12.3
15 17.03 З 1 20 км ясно -28.4 -30.2 84 -32 -32 опасность
обморожения
1014.1 997.2
18 17.03 З 3 20 км ясно -30.7 -33.0 80 -40 -40 опасность
обморожения
1014.9 997.8
21 17.03 З 3 50 км ясно -32.3 -34.0 85 -42 -42 опасность
обморожения
1016.1 998.9
00 18.03 ЮЗ 2 50 км 4/0
[Ci fib]
-27.5 -29.3 85 -35 -33 опасность
обморожения
1017.1 1000.1 -34.3 37
03 18.03 ЮЗ 3 50 км 4/0
[Ci fib]
-20.2 -23.5 75 -28 -24 1016.2 999.8
06 18.03 Ю 5 50 км 10/0
[Ci sp]
-14.8 -19.9 65 -24 -22 1015.3 999.3
09 18.03 З 3 50 км 8/0
[Ci sp]
-12.4 -20.7 50 -18 -18 1015.4 999.5
12 18.03 С 3 20 км 3/0
[Ci fib]
-18.3 -22.4 70 -26 -26 1017.1 1000.8 -10.5
15 18.03 ЮЗ 3 20 км 3/0
[Ci fib]
-28.2 -31.3 75 -37 -37 опасность
обморожения
1018.9 1001.9
18 18.03 ЮЗ 3 20 км ясно -30.3 -32.8 79 -40 -40 опасность
обморожения
1019.4 1002.3
21 18.03 З 1 50 км 8/0
[Ci fib]
-32.2 -34.6 79 -37 -37 опасность
обморожения
1020.7 1003.4
00 19.03 ЮЗ 1 50 км 8/0
[Ci fib]
-27.9 -30.3 80 -32 -30 опасность
обморожения
1021.4 1004.4 -32.7 37
03 19.03 ЮЗ 3 50 км 10/0
[Ci fib]
-20.4 -24.5 70 -28 -25 1021.5 1005.0
06 19.03 Ю 2 50 км 8/0
[Ci fib]
-14.6 -19.7 65 -20 -17 1020.8 1004.7
09 19.03 З 1 50 км ясно -14.6 -20.7 60 -17 -17 1021.1 1005.0
12 19.03 З 2 20 км ясно -26.8 -30.0 74 -34 -34 опасность
обморожения
1022.8 1005.9 -13.8
15 19.03 ЮЗ 2 20 км ясно -30.9 -33.9 75 -39 -39 опасность
обморожения
1023.5 1006.3
18 19.03 З 3 20 км ясно -34.0 -36.8 76 -44 -44 опасность
обморожения
1024.0 1006.5
21 19.03 З 2 50 км ясно -36.2 -39.0 75 -45 -45 опасность
обморожения
1024.5 1006.9
00 20.03 ЮВ 1 50 км ясно -29.4 -31.8 80 -33 -31 опасность
обморожения
1024.5 1007.3 -36.4 37
03 20.03 Ю 2 50 км ясно -21.2 -24.5 75 -27 -22 1024.4 1007.7
06 20.03 В 1 50 км 1/0
[Ci fib]
-17.2 -22.2 65 -20 -16 1024.1 1007.7
09 20.03 С 3 50 км 1/0
[Ci fib]
-18.0 -23.0 65 -25 -25 1024.2 1007.8
12 20.03 ЮЗ 2 20 км ясно -26.3 -29.4 75 -33 -33 опасность
обморожения
1025.8 1008.8 -14.4
15 20.03 З 3 20 км ясно -29.9 -33.0 74 -39 -39 опасность
обморожения
1026.8 1009.5
18 20.03 З 3 20 км ясно -34.1 -37.1 74 -45 -45 опасность
обморожения
1026.8 1009.2
21 20.03 З 3 50 км ясно -35.7 -38.1 78 -46 -46 опасность
обморожения
1027.1 1009.4
00 21.03 штиль 0 50 км ясно -29.1 -36.1 51 -29 -26 1027.2 1009.9 -35.7 37
03 21.03 ЮЗ 2 50 км ясно -21.7 -24.9 75 -28 -22 1026.3 1009.6
06 21.03 ЮВ 1 50 км ясно -18.3 -23.3 65 -21 -17 1025.1 1008.7
09 21.03 СВ 2 50 км ясно -17.2 -21.4 70 -23 -22 1024.6 1008.2
12 21.03 З 2 20 км ясно -26.3 -29.4 75 -33 -33 опасность
обморожения
1025.6 1008.6 -15.2
15 21.03 ЮЗ 2 20 км ясно -30.6 -33.6 75 -38 -38 опасность
обморожения
1025.8 1008.5
18 21.03 З 3 20 км ясно -33.9 -36.2 80 -44 -44 опасность
обморожения
1025.9 1008.2
21 21.03 З 3 50 км ясно -35.8 -38.1 79 -47 -47 опасность
обморожения
1025.7 1008.0
00 22.03 ЮЗ 2 50 км ясно -28.4 -30.8 80 -36 -33 опасность
обморожения
1024.9 1007.8 +35.8 36
03 22.03 ЮЗ 4 50 км ясно -20.8 -24.1 75 -30 -26 1023.3 1006.8
06 22.03 ЮЗ 5 50 км ясно -13.3 -19.4 60 -22 -20 1020.4 1004.3
09 22.03 ЮЗ 4 50 км 1/0
[Ci fib]
-11.8 -19.0 55 -19 -19 1018.5 1002.5
12 22.03 З 1 20 км 3/0
[Ci fib]
-22.4 -25.6 75 -26 -26 1016.8 1000.3 -11.0
15 22.03 З 2 20 км 3/0
[Ci fib]
-27.7 -30.1 80 -35 -35 опасность
обморожения
1014.8 997.8
18 22.03 З 2 20 км 8/0
[Ci fib]
-29.6 -32.0 80 -37 -37 опасность
обморожения
1012.0 995.0
21 22.03 З 1 50 км 10/0
[Ci fib]
-28.7 -31.2 79 -33 -33 опасность
обморожения
1009.2 992.4
00 23.03 штиль 0 50 км 10/0
[As trans]
-22.5 -25.7 75 -23 -21 1005.6 989.2 -29.6 36
03 23.03 С 2 50 км 10/0
[As trans]
-11.9 -17.1 65 -16 -14 1001.7 986.0
06 23.03 СВ 2 10 км слаб. снег 10/0
[Cs]
-8.6 -13.4 68 -13 -10 1000.0 984.6
09 23.03 штиль 0 20 км слаб. снег 10/0
[Cs]
-7.4 -10.0 82 -8 -8 999.7 984.3
12 23.03 СВ 2 10 км слаб. снег 10/0
[As op]
-7.6 -9.4 87 -12 -12 999.3 983.9 -6.2 0.5
15 23.03 СВ 2 20 км {снег} 10/0
[As op]
-8.2 -10.1 86 -13 -13 998.5 983.1
18 23.03 С 3 10 км слаб. снег 10/0
[As op]
-9.4 -11.0 88 -15 -15 998.9 983.3
21 23.03 С 3 10 км слаб. снег 10/0
[As op]
-11.4 -11.4 100 -17 -17 999.4 983.7
00 24.03 СВ 5 10 км слаб. снег 10/0
[As op]
-13.2 -13.8 95 -22 -21 1000.7 984.9 -13.2 0.9 36

 

Местоположение метеостанции Покровск (Якутия, Россия): широта 61.48 долгота 129.10 высота над уровнем моря 121 м.

В архиве по умолчанию представлена погода в Покровске за последнюю неделю. Архивные данные за месяц целиком и за предыдущие месяцы, начиная с января 2011 года, Вы можете получить, выбрав интересующий диапазон дат из раскрывающегося списка и нажав кнопку "Ввод!".


*Определитесь, кто Вы:
робот инопланетянин человек

Внимание! Время в таблицах - всемирное. Для получения местного времени необходимо прибавить поправку, которая равна 9 ч.

Смотрите также архив погоды в соседних городах и на ближайших метеорологических станциях:

Погода в Якутске (Якутия, Россия) (64 км)
Погода в Тегюльте (Якутия, Россия) (122 км)
Погода в Намцах (Якутия, Россия) (140 км)
Погода в Бердигестяхе (Якутия, Россия) (141 км)
Погода в Амге (Якутия, Россия) (163 км)
Погода в Чурапче (Якутия, Россия) (194 км)
Погода в Исити (Якутия, Россия) (217 км)
Погода в Батамае (Якутия, Россия) (227 км)
Погода в Буяге (Якутия, Россия) (232 км)
Погода в Тонгулахе (Якутия, Россия) (247 км)

Пояснения к столбцам:

Ветер - указаны скорость ветра в м/с - средняя за 10 мин, порывы в срок и между сроками (в фигурных скобках) и направление, откуда дует ветер: С - северный, СВ - северо-восточный, В - восточный, ЮВ - юго-восточный, Ю - южный, ЮЗ - юго-западный, З - западный, СЗ - северо-западный.
Видимость - горизонтальная дальность видимости в метрах или километрах. При видимости от 1 до 10 км при отсутствии осадков обычно наблюдается дымка, при ухудшении видимости до 1 км и менее - туман. В сухую погоду видимость может ухудшаться дымом, пылью или мглою.
Явления - указаны атмосферные явления, наблюдавшиеся в срок или в последний час перед сроком; фигурными скобками обозначены явления, наблюдавшиеся между сроками (за 1-3 часа до срока); квадратными скобками обозначены град или гололедные отложения с указанием их диаметра в мм.
Облачность - указаны через наклонную черту общая и нижняя облачность в баллах и высота нижней границы облаков в метрах; квадратными скобками обозначены формы облаков: Ci - перистые, Cs - перисто-слоистые, Cc - перисто-кучевые, Ac - высококучевые, As - высокослоистые, Sc - слоисто-кучевые, Ns - слоисто-дождевые, Cu - кучевые, Cb - кучево-дождевые. Подробнее классификацию облаков см. в Атласе облаков (PDF).
T - Температура воздуха - температура, измеренная на высоте 2 м над землей.
Td - Температура точки росы - температура, при понижении до которой содержащийся в воздухе водяной пар достигнет насыщения.
f - Относительная влажность воздуха - влажноcть воздуха, измеренная на высоте 2 м над землей.
Te - Эффективная температура - температура, которую ощущает одетый по сезону человек в тени. Характеристика душности погоды. При расчете учитывается влияние влажности воздуха и скорости ветра на теплоощущения человека.
Tes - Эффективная температура на солнце - температура, которую ощущает человек, с поправкой на солнечный нагрев. Характеристика знойности погоды. Зависит от высоты солнца над горизонтом, облачности и скорости ветра. Ночью, в пасмурную погоду, а также при ветре 12 м/с и более поправка равна нулю.
P - Атмосферное давление - приведенное к уровню моря атмосферное давление.
Po - Атмосферное давление - измеренное на уровне метеостанции атмосферное давление.
Tmin - Минимальная температура - минимум температуры воздуха на высоте 2 м над землей.
Tmax - Максимальная температура - максимум температуры воздуха на высоте 2 м над землей.
R - Количество осадков - Количество выпавших осадков за период времени, мм. При наведении курсора мыши на число - период времени, за который выпало указанное количество осадков.
R24 - Количество осадков - Количество выпавших осадков за 24 часа, мм.
S - Снежный покров - Высота снежного покрова, см. При наведении курсора мыши на число - состояние снежного покрова и степень покрытия местности в баллах.